TIANLIAN 1-05

Last updated on Sun Apr 12 2026 00:02:55 GMT+0000 (Coordinated Universal Time)

1 49011U 21063A 26101.23878920 .00000111 00000+0 00000+0 0 9997 2 49011 1.4200 81.1979 0003038 256.4680 324.5588 1.00274223 17402
UTC large
Height (km)
Speed (km/s)
/
Latitude / Longitude
Inclination (degrees)
Orbital Period (minutes)
Azimuth
Elevation
Range (km)
Doppler Factor

Next 0 passes for location: London (51.5072 / 0.1276)

Sorry there are no passes over London.
TIANLIAN 1-05